Location: Unspecified
(0.0000°N, 0.0000°E)
Time: 13:47:07
(UTC+00:00)

THORAD DELTA 1 DEB - Pass Details

Date: 15 February 2026
Orbit: 1442 x 1568 km, 101.4° (Epoch: 22 February)

Event Time Altitude Azimuth Distance (km) Brightness Sun altitude
Exits shadow 22:18:39 18° 251° (WSW) 3,161 ? -58.8°
Drops below altitude 10° 22:21:22 10° 236° (SW) 3,758 ? -59.4°
Sets 22:24:56 0° 223° (SW) 4,737 ? -60.2°
